Date String (YYYY-MM-DD hh:mm:ss) UTC,Instrument flags,absolute air pressure of the measurement (hPa),sample flow rate (lpm),inlet stack bypass flow (lpm),air temperature of the measurement (°C),ambient temperature measured by the external sensor (°C),aerosol sample conditioner tube jacket temperature (°C),OPC LED temperature (°C),internal box temperature (°C),relative humidity of the measurement (%),span deviation,mass concentration of particles derived from Lorenz-Mie calculation of OPC scattering (μg/m³),mass concentration of particles derived from Lorenz-Mie calculation of OPC scattering (μg/m³),mass concentration of particles derived from Lorenz-Mie calculation of OPC scattering (μg/m³)
DateTimeUTC,F1_M11,P_M11,Q1_M11,Q2_M11,T1_M11,T2_M11,T3_M11,T4_M11,T5_M11,U1_M11,ZSPAN_M11,X2_M11,X0_M11,X1_M11
2024-02-28 16:00:00,SystemResetWarning,0828.9,4.99,000.00,018.4,017.8,000.0,026.8,020.1,08.7,0000.0,0002.55,0007.91,0001.60
2024-02-28 16:01:00,SystemResetWarning,0829.0,5.00,000.00,018.4,017.8,000.0,026.8,020.1,08.7,0000.0,0002.62,0008.11,0001.64
2024-02-28 16:02:00,SystemResetWarning,0829.0,5.00,000.00,018.4,017.8,000.0,026.8,020.1,08.9,0000.0,0002.61,0008.44,0001.65
2024-02-28 16:03:00,SystemResetWarning,0829.0,5.00,000.00,018.4,017.8,000.0,026.8,020.1,09.0,0000.0,0002.63,0008.71,0001.66
2024-02-28 16:04:00,SystemResetWarning,0828.9,5.00,000.00,018.4,017.8,000.0,026.8,020.1,08.8,0000.0,0002.61,0008.58,0001.67
2024-02-28 16:05:00,SystemResetWarning,0828.9,5.00,000.00,018.4,017.8,000.0,026.8,020.0,08.6,0000.0,0002.59,0008.40,0001.69
2024-02-28 16:06:00,SystemResetWarning,0829.0,5.00,000.00,018.4,017.8,000.0,026.8,020.1,08.8,0000.0,0002.59,0008.43,0001.70
2024-02-28 16:07:00,SystemResetWarning,0828.9,5.01,000.00,018.4,017.8,000.0,026.8,020.1,08.7,0000.0,0002.58,0007.91,0001.71
2024-02-28 16:08:00,SystemResetWarning,0829.0,4.99,000.00,018.4,017.8,000.0,026.8,020.1,08.6,0000.0,0002.54,0007.32,0001.71
2024-02-28 16:09:00,SystemResetWarning,0828.9,5.00,000.00,018.4,017.8,000.0,026.8,020.1,08.4,0000.0,0002.48,0006.20,0001.70
2024-02-28 16:10:00,SystemResetWarning,0828.8,4.99,000.00,018.4,017.8,000.0,026.8,020.0,08.7,0000.0,0002.44,0006.05,0001.70
2024-02-28 16:11:00,SystemResetWarning,0828.8,5.00,000.00,018.4,017.8,000.0,026.7,020.0,08.5,0000.0,0002.46,0005.91,0001.69
2024-02-28 16:12:00,SystemResetWarning,0828.9,5.00,000.00,018.4,017.8,000.0,026.7,020.1,08.5,0000.0,0002.40,0005.88,0001.64
2024-02-28 16:13:00,SystemResetWarning,0829.0,5.01,000.00,018.4,017.9,000.0,026.8,020.1,08.4,0000.0,0002.38,0005.11,0001.63
2024-02-28 16:14:00,SystemResetWarning,0828.9,5.00,000.00,018.4,017.9,000.0,026.8,020.1,09.0,0000.0,0002.39,0005.07,0001.63
2024-02-28 16:15:00,SystemResetWarning,0829.0,5.01,000.00,018.4,017.9,000.0,026.8,020.1,08.9,0000.0,0002.42,0006.62,0001.62
2024-02-28 16:16:00,SystemResetWarning,0828.9,5.00,000.00,018.4,017.9,000.0,026.8,020.1,09.0,0000.0,0002.38,0006.47,0001.60
2024-02-28 16:17:00,SystemResetWarning,0829.0,5.00,000.00,018.4,017.9,000.0,026.8,020.1,09.1,0000.0,0002.37,0006.52,0001.58
2024-02-28 16:18:00,SystemResetWarning,0828.9,5.00,000.00,018.4,017.9,000.0,026.8,020.1,09.3,0000.0,0002.44,0007.41,0001.56
2024-02-28 16:19:00,SystemResetWarning,0829.0,5.00,000.00,018.5,017.9,000.0,026.8,020.1,09.4,0000.0,0002.44,0007.57,0001.55
2024-02-28 16:20:00,SystemResetWarning,0829.0,5.00,000.00,018.5,017.9,000.0,026.8,020.1,09.4,0000.0,0002.43,0007.76,0001.54
2024-02-28 16:21:00,SystemResetWarning,0829.0,5.00,000.00,018.5,017.9,000.0,026.8,020.2,09.4,0000.0,0002.48,0008.07,0001.52
2024-02-28 16:22:00,SystemResetWarning,0829.0,5.01,000.00,018.5,018.0,000.0,026.8,020.2,09.5,0000.0,0002.48,0008.14,0001.50
2024-02-28 16:23:00,SystemResetWarning,0829.0,5.00,000.00,018.5,018.0,000.0,026.8,020.2,09.6,0000.0,0002.45,0007.97,0001.50
2024-02-28 16:24:00,SystemResetWarning,0829.0,5.00,000.00,018.5,018.0,000.0,026.8,020.2,09.3,0000.0,0002.46,0008.05,0001.48
2024-02-28 16:25:00,SystemResetWarning,0829.1,5.00,000.00,018.5,018.0,000.0,026.8,020.2,09.2,0000.0,0002.47,0008.32,0001.45
2024-02-28 16:26:00,SystemResetWarning,0829.1,5.00,000.00,018.5,018.0,000.0,026.8,020.2,09.1,0000.0,0002.41,0007.61,0001.42
2024-02-28 16:27:00,SystemResetWarning,0829.1,5.01,000.00,018.5,018.0,000.0,026.8,020.2,09.1,0000.0,0002.39,0007.65,0001.41
2024-02-28 16:28:00,SystemResetWarning,0829.1,5.00,000.00,018.5,018.0,000.0,026.8,020.2,09.1,0000.0,0002.42,0008.13,0001.41
2024-02-28 16:29:00,SystemResetWarning,0829.2,5.00,000.00,018.5,018.0,000.0,026.8,020.2,08.9,0000.0,0002.32,0007.56,0001.40
2024-02-28 16:30:00,SystemResetWarning,0829.2,5.00,000.00,018.5,018.0,000.0,026.8,020.2,08.8,0000.0,0002.33,0007.57,0001.40
2024-02-28 16:31:00,SystemResetWarning,0829.3,5.00,000.00,018.5,018.0,000.0,026.8,020.2,09.0,0000.0,0002.35,0007.33,0001.41
2024-02-28 16:32:00,SystemResetWarning,0829.3,5.01,000.00,018.5,018.0,000.0,026.8,020.2,08.7,0000.0,0002.40,0007.14,0001.45
2024-02-28 16:33:00,SystemResetWarning,0829.2,5.01,000.00,018.5,018.0,000.0,026.8,020.2,08.9,0000.0,0002.37,0007.03,0001.46
2024-02-28 16:34:00,SystemResetWarning,0829.2,5.01,000.00,018.5,018.0,000.0,026.8,020.2,08.7,0000.0,0002.36,0007.17,0001.48
2024-02-28 16:35:00,SystemResetWarning,0829.3,5.00,000.00,018.5,018.0,000.0,026.8,020.2,08.4,0000.0,0002.39,0007.15,0001.50
2024-02-28 16:36:00,SystemResetWarning,0829.2,5.00,000.00,018.5,018.0,000.0,026.8,020.2,08.5,0000.0,0002.38,0007.48,0001.52
2024-02-28 16:37:00,SystemResetWarning,0829.3,4.99,000.00,018.6,018.0,000.0,026.9,020.2,09.1,0000.0,0002.39,0007.70,0001.55
2024-02-28 16:38:00,SystemResetWarning,0829.4,5.00,000.00,018.6,018.0,000.0,026.8,020.2,08.9,0000.0,0002.47,0007.62,0001.59
2024-02-28 16:39:00,SystemResetWarning,0829.4,5.00,000.00,018.6,018.0,000.0,026.9,020.3,08.8,0000.0,0002.48,0007.46,0001.59
2024-02-28 16:40:00,SystemResetWarning,0829.4,5.00,000.00,018.6,018.1,000.0,026.9,020.3,08.8,0000.0,0002.47,0007.45,0001.59
2024-02-28 16:41:00,SystemResetWarning,0829.3,4.99,000.00,018.6,018.1,000.0,026.9,020.3,09.1,0000.0,0002.39,0007.24,0001.60
2024-02-28 16:42:00,SystemResetWarning,0829.4,5.01,000.00,018.6,018.0,000.0,026.9,020.3,09.0,0000.0,0002.40,0007.36,0001.59
2024-02-28 16:43:00,SystemResetWarning,0829.4,5.01,000.00,018.6,018.0,000.0,026.9,020.3,08.9,0000.0,0002.28,0007.14,0001.56
2024-02-28 16:44:00,SystemResetWarning,0829.4,5.00,000.00,018.6,018.0,000.0,026.9,020.3,09.2,0000.0,0002.28,0007.07,0001.55
2024-02-28 16:45:00,SystemResetWarning,0829.4,4.99,000.00,018.6,018.0,000.0,026.9,020.2,09.3,0000.0,0002.24,0006.78,0001.53
2024-02-28 16:46:00,SystemResetWarning,0829.5,5.00,000.00,018.6,018.0,000.0,026.9,020.3,09.0,0000.0,0002.21,0007.01,0001.51
2024-02-28 16:47:00,SystemResetWarning,0829.5,4.99,000.00,018.6,018.0,000.0,026.9,020.3,08.9,0000.0,0002.13,0005.96,0001.50
2024-02-28 16:48:00,SystemResetWarning,0829.4,4.99,000.00,018.5,018.0,000.0,026.9,020.3,08.9,0000.0,0002.09,0006.68,0001.48
2024-02-28 16:49:00,SystemResetWarning,0829.4,5.00,000.00,018.5,018.0,000.0,026.9,020.3,09.0,0000.0,0002.05,0007.55,0001.46
2024-02-28 16:50:00,SystemResetWarning,0829.5,5.00,000.00,018.5,018.0,000.0,026.9,020.3,08.9,0000.0,0001.99,0007.30,0001.44
2024-02-28 16:51:00,SystemResetWarning,0829.6,5.00,000.00,018.5,018.0,000.0,026.9,020.2,08.7,0000.0,0001.98,0007.31,0001.44
2024-02-28 16:52:00,SystemResetWarning,0829.6,4.99,000.00,018.6,018.0,000.0,026.9,020.3,08.5,0000.0,0001.98,0007.35,0001.43
2024-02-28 16:53:00,SystemResetWarning,0829.6,5.01,000.00,018.6,018.0,000.0,026.9,020.2,08.7,0000.0,0001.97,0007.34,0001.43
2024-02-28 16:54:00,SystemResetWarning,0829.6,5.01,000.00,018.6,018.0,000.0,026.9,020.3,08.6,0000.0,0002.00,0008.12,0001.43
2024-02-28 16:55:00,SystemResetWarning,0829.5,5.01,000.00,018.6,018.0,000.0,026.9,020.3,08.1,0000.0,0002.00,0008.14,0001.43
2024-02-28 16:56:00,SystemResetWarning,0829.5,5.00,000.00,018.6,018.0,000.0,026.9,020.3,08.6,0000.0,0001.99,0008.12,0001.44
2024-02-28 16:57:00,SystemResetWarning,0829.5,4.99,000.00,018.6,018.1,000.0,026.9,020.3,08.9,0000.0,0001.98,0007.93,0001.45
2024-02-28 16:58:00,SystemResetWarning,0829.5,4.99,000.00,018.6,018.1,000.0,026.9,020.3,09.0,0000.0,0002.02,0008.43,0001.46
2024-02-28 16:59:00,SystemResetWarning,0829.5,5.00,000.00,018.6,018.1,000.0,026.9,020.3,08.3,0000.0,0002.06,0007.58,0001.47
